StriX-5

operational
NORAD ID: 65973 Int'l Des: 2025-229 Owner: SYNSP Country: J
LEOCIRCULAR

About StriX-5

Description loading...

Live Position

Loading 3D Globe...

Upcoming Passes

Altitude History

Altitude vs Time

uPlot chart will show altitude changes over time

Two-Line Element Set

1 65973U 25229C 25288.90947168 .00009735 00000-0 72431-3 0 9993
2 65973 41.9834 199.2408 0042100 255.4294 104.1860 15.02302016 181
Epoch: Oct 15, 2025 • Age: 9 hours

Current Status

Altitude 542.3 km
Velocity 7.61 km/s
Sub-Earth Point -38.56°S, 49.76°W
Launch Date Oct 14, 2025
Age 2 days
Type other

Technical Details

Classification Payload
Mass 150.00 kg
Dry Mass 150.00 kg
Total Mass 150.00 kg
Length 0.70 m
Diameter 0.50 m
Span 4.70 m
Shape Box + 2 pan
Manufacturer SYNSP
Bus Type StriX
Phase Status In Orbit
Owner/State SYNSP/J

Large Constellations

Loading constellations...